Home   Weather   Halton Hills   Past weeks

Flag for Canada Past Weather in Halton Hills, Ontario, Canada — Yesterday and Last 2 Weeks

39 °F

Passing clouds.

Feels Like: 32 °F
Forecast: 27 / 39 °F
Wind: 10 mph from North

Location: Toronto Pearson International Airport

Current Time: Oct 25, 2016 at 8:29:53 PM

Latest Report: Oct 25, 2016 at 8:00 PM

Visibility: 15 mi

Pressure: 30.43 "Hg

Humidity: 61%

Dew Point: 27 °F

Location of Halton HillsLocation

Past Weather in Halton Hills — Graph


Halton Hills Temperature Yesterday

Maximum temperature yesterday: 50 °F (at 2:00 PM)
Minimum temperature yesterday: 41 °F (at 11:00 PM)
Average temperature yesterday: 46 °F

High & Low Weather Summary for the Past Weeks

High77 °F (Oct 18, 12:00 PM)100% (Oct 17, 10:00 AM)30.42 "Hg (Oct 17, 10:00 AM)
Low37 °F (Oct 22, 8:00 AM)40% (Oct 19, 3:00 PM)29.55 "Hg (Oct 18, 2:00 PM)
Average55 °F72%30.03 "Hg
* Reported Oct 10 7:00 PM — Oct 25 7:00 PM, Halton Hills, Weather by CustomWeather, © 2016

Note: Actual official high and low records may vary slightly from our data, if they occured in-between our weather recording intervals... More about our weather records


Halton Hills Weather History for the Previous 24 Hours

Scroll right to see more
Time TempWeatherWind HumidityBarometerVisibility
7:00 PM
Tue, Oct 25
39 °FPassing clouds.12 mph61%30.41 "Hg15 mi
6:00 PM41 °FPassing clouds.20 mph53%30.38 "Hg15 mi
5:00 PM45 °FPassing clouds.18 mph49%30.36 "Hg15 mi
4:00 PM45 °FPassing clouds.17 mph49%30.35 "Hg15 mi
3:00 PM46 °FPassing clouds.17 mph53%30.35 "Hg15 mi
2:00 PM43 °FScattered clouds.18 mph61%30.36 "Hg15 mi
1:00 PM45 °FPartly sunny.13 mph61%30.36 "Hg15 mi
12:00 PM43 °FScattered showers. Partly sunny.13 mph66%30.35 "Hg15 mi
11:00 AM43 °FBroken clouds.14 mph66%30.35 "Hg15 mi
10:00 AM39 °FScattered showers. Broken clouds.22 mph75%30.34 "Hg15 mi
9:00 AM41 °FBroken clouds.10 mph66%30.33 "Hg15 mi
8:00 AM39 °FScattered showers. Partly sunny.16 mph75%30.32 "Hg15 mi
7:00 AM39 °FPassing clouds.14 mph75%30.30 "Hg15 mi
6:00 AM41 °FPassing clouds.13 mph57%30.28 "Hg15 mi
5:00 AM41 °FPassing clouds.7 mph66%30.27 "Hg15 mi
4:00 AM41 °FPassing clouds.10 mph66%30.26 "Hg15 mi
3:00 AM41 °FPassing clouds.9 mph66%30.25 "Hg15 mi
2:00 AM41 °FPassing clouds.12 mph66%30.24 "Hg15 mi
1:00 AM43 °FPassing clouds.10 mph61%30.24 "Hg15 mi
12:00 AM43 °FPassing clouds.14 mph66%30.23 "Hg15 mi
11:00 PM
Mon, Oct 24
41 °FPassing clouds.10 mph70%30.24 "Hg15 mi
10:00 PM43 °FPassing clouds.13 mph66%30.24 "Hg15 mi
9:00 PM43 °FPassing clouds.9 mph57%30.23 "Hg15 mi
8:00 PM45 °FPassing clouds.18 mph53%30.22 "Hg15 mi
Weather by CustomWeather, © 2016

See weather overviewHow to use our weather pages